Regional Weather Roundup
Issued by NWS Cleveland, OH

Home | Current Version | Previous Version | Graphics & Text | Print | Product List | Glossary On
Versions: 1 2 3 4 5 6 7 8 9 10 11 12 13 14 15 16 17 18 19 20 21 22 23 24 25 26 27 28 29 30 31 32 33 34 35 36 37 38 39 40 41 42 43 44 45 46 47 48 49 50
000
ASUS41 KCLE 061500
RWRCLE
OHIO REGIONAL WEATHER ROUNDUP
NATIONAL WEATHER SERVICE WILMINGTON, OH
1100 AM EDT WED MAY 06 2015

NOTE: "FAIR" INDICATES FEW OR NO CLOUDS BELOW 12,000 FEET WITH NO
SIGNIFICANT WEATHER AND/OR OBSTRUCTIONS TO VISIBILITY.

OHZ001>008-015>018-024>027-034-035-043-044-061600-
   NORTHWEST OHIO

CITY           SKY/WX    TMP DP  RH WIND       PRES   REMARKS
DEFIANCE       CLOUDY    56  55  97 E6        30.25S FOG
FINDLAY        PTSUNNY   61  55  81 CALM      30.23S HAZE
TOLEDO EXPRESS CLOUDY    54  53  97 E8        30.25S FOG
TOLEDO EXEC    FOG       53  51  93 E9        30.27R VSB 1
LIMA           MOSUNNY   62  58  86 CALM      30.23S FOG
$$

OHZ009>014-019>023-028>033-038-089-061600-
   NORTHEAST OHIO

CITY           SKY/WX    TMP DP  RH WIND       PRES   REMARKS
CLE-HOPKINS    CLOUDY    58  56  93 N5        30.26S FOG
CLE-LAKEFRONT  FOG       54  53  97 N7        30.23F VSB 1/4
CUY CO. ARPT   CLOUDY    64  61  88 NE6       30.24F FOG
LORAIN-ELYRIA  CLOUDY    59  55  87 NE7       30.24F FOG
ASHTABULA      CLOUDY    60  58  92 CALM      30.25S
AKRON-CANTON   PTSUNNY   68  60  75 VRB5      30.23S HAZE
WOOSTER        NOT AVBL
MANSFIELD      MOSUNNY   70  62  76 N5        30.23S HAZE
YOUNGSTOWN     PTSUNNY   71  58  63 CALM      30.23F
$$

OHZ042-051>053-060>062-070>072-077>081-061600-
  SOUTHWEST OHIO

CITY           SKY/WX    TMP DP  RH WIND       PRES   REMARKS
CINC-COVINGTON MOSUNNY   80  56  43 CALM      30.22F
CINC-LUNKEN    SUNNY     75  61  61 CALM      30.21F
HAMILTON       SUNNY     78  58  49 CALM      30.22F
DAYTON         NOT AVBL
WRIGHT-PAT AFB NOT AVBL
DAYTON GENERAL SUNNY     78  54  43 NW5       30.22S
WILMINGTON     SUNNY     79  54  41 CALM      30.22F
$$

OHZ036-037-039>041-045>050-054>059-063>069-073>076-082>088-061600-
  CENTRAL AND SOUTHEAST OHIO

CITY           SKY/WX    TMP DP  RH WIND       PRES   REMARKS
COLUMBUS       MOSUNNY   75  59  57 CALM      30.21F
OSU AIRPORT    SUNNY     75  57  53 CALM      30.22S
BOLTON FIELD   SUNNY     75  61  60 NW3       30.23S
RICKENBACK AFB NOT AVBL
NEWARK         SUNNY     73  62  68 CALM      30.21F
MARION         MOSUNNY   70  60  70 VRB5      30.23S HAZE
LANCASTER      SUNNY     79  56  45 CALM      30.22F
ZANESVILLE     SUNNY     73  59  61 NW3       30.22F
NEW PHILLY     SUNNY     69  61  75 NE3       30.23F HAZE
$$


USA.gov is the U.S. government's official web portal to all federal, state and local government web resources and services.